Location: ??
(31.9467°N, 34.8903°E)
Time: 12:15:45
(UTC+00:00)

CZ-4B R/B - Pass Details

Date: 29 October 2020
Orbit: 388 x 462 km, 97.6° (Epoch: 26 November)

Event Time Altitude Azimuth Distance (km) Brightness Sun altitude
Rises 15:38:05 0° 359° (N) 2,352 5.0 -10.1°
Reaches altitude 10° 15:40:16 10° 347° (NNW) 1,472 4.1 -10.6°
Maximum altitude 15:43:00 28° 286° (WNW) 791 3.4 -11.2°
Drops below altitude 10° 15:45:40 10° 225° (SW) 1,436 4.8 -11.7°
Sets 15:47:46 0° 213° (SSW) 2,279 5.6 -12.2°
